(459521) = 2006 HY53 = 2013 EY107

Discovered at Kitt Peak on 2003-07-09 by Spacewatch.

Orbit

Orbit type: Phocaea

Note: WebGL enabled browser required.

epoch2023-02-25.0
epoch JD2460000.5
perihelion date2020-03-05.94452
perihelion JD2458914.44452
argument of perihelion (°)63.49314
ascending node (°)136.49139
inclination (°)23.40974
eccentricity0.1883657
perihelion distance (AU)1.8677431
Tisserand w.r.t. Jupiter3.5
ΔV w.r.t. Earth (km/sec)11.1
semimajor axis (AU)2.3012127
mean anomaly (°)306.63429
mean daily motion (°/day)0.28233760
aphelion distance (AU)2.735
period (years)3.49
P-vector [x]-0.88907252
P-vector [y]-0.40597496
P-vector [z]0.21150504
Q-vector [x]0.36705832
Q-vector [y]-0.90832369
Q-vector [z]-0.20053991
absolute magnitude17.31
phase slope0.15
uncertainty0
referenceMPO 731413
observations used256
oppositions9
arc length (days)7141
first opposition used2003
last opposition used2023
residual rms (arc-secs)0.79
perturbers coarse indicatorM-v
perturbers precise indicator003Ek
first observation date used2003-07-09.0
last observation date used2023-01-26.0
computer nameMPCLINUX
JD of orbit computation2457431.096314
perihelion JD uncertainty (days)1.1310E-04
argument of perihelion uncertainty (°)4.7269E-05
ascending node uncertainty (°)2.4155E-05
inclination uncertainty (°)1.1713E-05
eccentricity uncertainty 1.3328E-07
perihelion distance uncertainty (AU)3.2934E-07
Minimum Orbit Intersection Distances (in AU)
for orbit epoch: 2460000.5, reference: E2023-BE3
Mercury1.47354
Venus1.19205
Earth0.96432
Mars0.33398
Jupiter2.43197
Saturn6.74643
Uranus16.4712
Neptune27.2765

Observations

260 total observations over interval: 2003 07 09.39356 – 2023 01 26.328762
These data are available for download (format description).

Date (UT) J2000 RA J2000 Dec Magn Location Ref
2003 07 09.39356 21 15 03.97 -07 32 14.9 21.8 V 691 – Steward Observatory, Kitt Peak-Spacewatch MPS 468706
2003 07 09.42194 21 15 02.86 -07 32 34.6 21.3 V 691 – Steward Observatory, Kitt Peak-Spacewatch MPS 468706
2003 07 09.45114 21 15 01.70 -07 32 55.2 21.1 V 691 – Steward Observatory, Kitt Peak-Spacewatch MPS 468706
2003 08 05.31532 20 52 01.06 -13 52 30.4 21.6 V 691 – Steward Observatory, Kitt Peak-Spacewatch MPS 468706
2003 08 05.34656 20 51 59.20 -13 52 59.0 21.1 V 691 – Steward Observatory, Kitt Peak-Spacewatch MPS 468706
2003 08 05.37890 20 51 57.25 -13 53 28.3 21.8 V 691 – Steward Observatory, Kitt Peak-Spacewatch MPS 468706
2006 04 19.46479 15 25 20.54 +28 01 16.0 19.1 R 644 – Palomar Mountain/NEAT MPS 170015
2006 04 19.48741 15 25 19.66 +28 01 30.9 19.0 R 644 – Palomar Mountain/NEAT MPS 170015
2006 04 19.51021 15 25 18.80 +28 01 45.4 19.5 R 644 – Palomar Mountain/NEAT MPS 170015
2006 04 26.29881 15 20 48.14 +29 03 37.8 19.2 R 699 – Lowell Observatory-LONEOS MPS 170016
2006 04 26.31527 15 20 47.31 +29 03 45.7   699 – Lowell Observatory-LONEOS MPS 170016
2006 04 26.33173 15 20 46.52 +29 03 52.2   699 – Lowell Observatory-LONEOS MPS 170016
2006 04 26.34819 15 20 45.83 +29 03 59.5   699 – Lowell Observatory-LONEOS MPS 170016
2013 03 13.45667 15 34 26.91 +16 50 34.6   I41 – Palomar Mountain--ZTF MPS 460702
2013 03 13.46915 15 34 27.51 +16 50 47.6   I41 – Palomar Mountain--ZTF MPS 460702
2013 03 13.48077 15 34 28.06 +16 50 59.9   I41 – Palomar Mountain--ZTF MPS 460702
2013 03 14.49301 15 35 18.30 +17 08 43.0   I41 – Palomar Mountain--ZTF MPS 460702
2013 03 14.49417 15 35 18.36 +17 08 44.4   I41 – Palomar Mountain--ZTF MPS 460702
2013 03 14.49532 15 35 18.41 +17 08 45.5   I41 – Palomar Mountain--ZTF MPS 460702
2013 03 14.49647 15 35 18.46 +17 08 46.7   I41 – Palomar Mountain--ZTF MPS 460702
2013 04 08.35709 15 43 56.71 +24 15 24.5 19.5 V 703 – Catalina Sky Survey MPS 468706
2013 04 08.36728 15 43 56.74 +24 15 31.7 19.0 V 703 – Catalina Sky Survey MPS 468706
2013 04 08.37748 15 43 56.53 +24 15 43.4 19.5 V 703 – Catalina Sky Survey MPS 468706
2013 04 08.38771 15 43 56.38 +24 15 52.9 20.1 V 703 – Catalina Sky Survey MPS 468706
2013 05 07.36832 15 27 14.14 +28 42 46.1 19.6 V 703 – Catalina Sky Survey MPS 468706
2013 05 07.37688 15 27 13.68 +28 42 47.7 19.4 V 703 – Catalina Sky Survey MPS 468706
2013 05 07.38539 15 27 13.21 +28 42 46.5 19.4 V 703 – Catalina Sky Survey MPS 468706
2013 05 07.39395 15 27 12.67 +28 42 47.4 19.2 V 703 – Catalina Sky Survey MPS 468706
2013 05 16.30561 15 19 31.81 +28 32 35.7 19.0 R H15 – ISON-NM Observatory, Mayhill MPS 468706
2013 05 16.31630 15 19 31.20 +28 32 33.1 19.6 R H15 – ISON-NM Observatory, Mayhill MPS 468706
2013 05 16.32690 15 19 30.59 +28 32 31.9 19.4 R H15 – ISON-NM Observatory, Mayhill MPS 468706
2013 05 16.33744 15 19 30.06 +28 32 28.6 19.4 R H15 – ISON-NM Observatory, Mayhill MPS 468706
2016 01 13.25689 07 34 23.98 +04 20 18.6 20.5 r G45 – Space Surveillance Telescope, Atom Site MPS 668510
2016 01 13.26154 07 34 23.63 +04 20 22.7 19.6 r G45 – Space Surveillance Telescope, Atom Site MPS 668510
2016 01 13.26295 07 34 23.59 +04 20 23.2 20.0 r G45 – Space Surveillance Telescope, Atom Site MPS 668510
2016 01 13.27343 07 34 22.85 +04 20 31.7 20.0 r G45 – Space Surveillance Telescope, Atom Site MPS 668510
2016 01 13.27474 07 34 22.76 +04 20 32.6 19.5 r G45 – Space Surveillance Telescope, Atom Site MPS 668510
2016 01 13.27932 07 34 22.46 +04 20 36.1 20.1 r G45 – Space Surveillance Telescope, Atom Site MPS 668510
2016 01 13.28064 07 34 22.37 +04 20 37.3 19.5 r G45 – Space Surveillance Telescope, Atom Site MPS 668510
2016 02 12.27668 07 05 54.067 +12 15 58.24 20.7 w F51 – Pan-STARRS 1, Haleakala MPS 679195
2016 02 12.28856 07 05 53.610 +12 16 10.01 21.0 w F51 – Pan-STARRS 1, Haleakala MPS 679195
2016 02 12.30056 07 05 53.136 +12 16 21.90 20.6 w F51 – Pan-STARRS 1, Haleakala MPS 679195
2016 02 26.38349 07 00 57.927 +15 58 33.91 20.4 r F51 – Pan-STARRS 1, Haleakala MPS 690133
2016 02 26.39534 07 00 57.840 +15 58 44.56 20.4 r F51 – Pan-STARRS 1, Haleakala MPS 690133
2016 02 26.40699 07 00 57.733 +15 58 54.97 20.5 r F51 – Pan-STARRS 1, Haleakala MPS 690133
2016 02 26.41868 07 00 57.681 +15 59 04.99 20.4 r F51 – Pan-STARRS 1, Haleakala MPS 690133
2017 06 25.54231 21 37 41.150 -06 10 00.46 21.1 w F51 – Pan-STARRS 1, Haleakala MPS 803453
2017 06 25.55433 21 37 41.019 -06 10 06.22 21.4 w F51 – Pan-STARRS 1, Haleakala MPS 803453
2017 06 25.56637 21 37 40.910 -06 10 11.88 21.4 w F51 – Pan-STARRS 1, Haleakala MPS 803453
2017 06 25.57842 21 37 40.786 -06 10 17.64 21.6 w F51 – Pan-STARRS 1, Haleakala MPS 803453
2017 06 29.39299 21 36 59.00 -06 42 26.5 21.9 V G96 – Mt. Lemmon Survey MPS 803453
2017 06 29.39723 21 36 58.94 -06 42 29.4 21.2 V G96 – Mt. Lemmon Survey MPS 803453
2017 06 29.40147 21 36 58.89 -06 42 31.5 21.1 V G96 – Mt. Lemmon Survey MPS 803453
2017 06 29.40571 21 36 58.74 -06 42 33.9 21.0 V G96 – Mt. Lemmon Survey MPS 803453
2017 07 26.46037 21 21 00.508 -12 14 00.76 20.2 w F51 – Pan-STARRS 1, Haleakala MPS 807871
2017 07 26.47134 21 20 59.903 -12 14 10.52 20.2 w F51 – Pan-STARRS 1, Haleakala MPS 807871
2017 07 26.48232 21 20 59.297 -12 14 20.27 20.4 w F51 – Pan-STARRS 1, Haleakala MPS 807871
2017 07 26.49326 21 20 58.694 -12 14 29.92 20.7 w F51 – Pan-STARRS 1, Haleakala MPS 807871
2017 07 30.45329 21 17 24.280 -13 13 47.39 20.7 w F51 – Pan-STARRS 1, Haleakala MPS 809277
2017 07 30.46426 21 17 23.645 -13 13 57.26 21.0 w F51 – Pan-STARRS 1, Haleakala MPS 809277
2017 07 30.48620 21 17 22.377 -13 14 17.13 20.7 w F51 – Pan-STARRS 1, Haleakala MPS 809277
2017 08 24.37562 20 54 35.614 -19 16 13.62 20.4 w F51 – Pan-STARRS 1, Haleakala MPS 813331
2017 08 24.38681 20 54 35.070 -19 16 22.23 20.4 w F51 – Pan-STARRS 1, Haleakala MPS 813331
2017 08 24.39799 20 54 34.511 -19 16 30.84 20.6 w F51 – Pan-STARRS 1, Haleakala MPS 813331
2018 11 09.70603 04 05 04.23 -15 54 42.1 21.3 R D29 – Purple Mountain Observatory, XuYi Station MPS 937011
2018 11 09.73431 04 05 02.60 -15 54 50.6 21.5 R D29 – Purple Mountain Observatory, XuYi Station MPS 937011
2018 11 15.34254 03 59 32.70 -16 18 21.0 20.8 G G96 – Mt. Lemmon Survey MPS 952100
2018 11 15.34767 03 59 32.33 -16 18 22.0 21.0 G G96 – Mt. Lemmon Survey MPS 952100
2018 11 15.35279 03 59 32.02 -16 18 22.9 21.4 G G96 – Mt. Lemmon Survey MPS 952100
2018 11 15.35791 03 59 31.78 -16 18 24.0 20.6 G G96 – Mt. Lemmon Survey MPS 952100
2020 03 05.43568 15 38 27.60 +13 33 17.7 20.0 G G96 – Mt. Lemmon Survey MPS 1163713
2020 03 05.44043 15 38 27.92 +13 33 22.0 19.9 G G96 – Mt. Lemmon Survey MPS 1163713
2020 03 05.44518 15 38 28.25 +13 33 26.5 20.1 G G96 – Mt. Lemmon Survey MPS 1163713
2020 03 05.44992 15 38 28.56 +13 33 30.9 20.0 G G96 – Mt. Lemmon Survey MPS 1163713
2020 03 20.81588 15 52 53.93 +17 45 28.6 20.1 R D29 – Purple Mountain Observatory, XuYi Station MPS 1171938
2020 03 20.83179 15 52 54.52 +17 45 44.8 20.4 R D29 – Purple Mountain Observatory, XuYi Station MPS 1171938
2020 03 20.84770 15 52 55.13 +17 46 01.2 20.7 R D29 – Purple Mountain Observatory, XuYi Station MPS 1171938
2020 03 24.44296 15 55 06.59 +18 47 03.6 20.1 G 703 – Catalina Sky Survey MPS 1171938
2020 03 24.44818 15 55 06.78 +18 47 09.6 19.8 G 703 – Catalina Sky Survey MPS 1171938
2020 03 24.45016 15 55 06.86 +18 47 11.5 20.0 G G96 – Mt. Lemmon Survey MPS 1171938
2020 03 24.45530 15 55 07.02 +18 47 16.7 19.9 G G96 – Mt. Lemmon Survey MPS 1171938
2020 03 24.45861 15 55 07.04 +18 47 18.8 20.2 G 703 – Catalina Sky Survey MPS 1171938
2020 03 24.46046 15 55 07.17 +18 47 21.9 20.0 G G96 – Mt. Lemmon Survey MPS 1171938
2020 03 24.46561 15 55 07.32 +18 47 27.2 20.2 G G96 – Mt. Lemmon Survey MPS 1171938
2020 03 25.51243 15 55 40.278 +19 05 14.03 20.4 w F52 – Pan-STARRS 2, Haleakala MPS 1171938
2020 03 25.52486 15 55 40.634 +19 05 26.22 20.0 w F52 – Pan-STARRS 2, Haleakala MPS 1171938
2020 03 25.53749 15 55 40.985 +19 05 38.72 20.1 w F52 – Pan-STARRS 2, Haleakala MPS 1171938
2020 03 29.529436 15 57 22.55 +20 12 47.6 19.40 o T08 – ATLAS-MLO, Mauna Loa MPS 1171938
2020 03 29.532290 15 57 22.62 +20 12 51.1 19.31 o T08 – ATLAS-MLO, Mauna Loa MPS 1171938
